User: anonymous   Login
Location: Unspecified
(0.0000°N, 0.0000°E)
Time: 01:09:09
(UTC+01:00)
Language:

Gbstr 26 Del rocket - Orbit

View from above orbital plane
View from above orbital plane
View from above satellite
View from above satellite

Ground track
Ground track

The orbit data is extracted from the following two-line orbital elements,

1 25876U 99041E   14329.51513171  .00003179  00000-0  58857-3 0  5266
2 25876 051.7659 041.7301 0538686 185.8769 285.8089 14.02616861783350
Epoch (UTC): 25 November 2014 12:21:47
Eccentricity: 0.0538686
inclination: 51.7659°
perigee height: 493 km
apogee height: 1276 km
right ascension of ascending node: 41.7301°
argument of perigee: 185.8769°
revolutions per day: 14.02616861
mean anomaly at epoch: 285.8089°
orbit number at epoch: 78335

The dashed part of the orbit path shows where the satellite is in the earth's shadow,  

DLR